Location: Krakow
(50.0830°N, 19.9170°E)
Time: 20:47:41
(UTC+01:00)

Altair - Pass Details

Date: 10 December 2023
Orbit: 1501 x 1682 km, 47.2° (Epoch: 03 March)

Event Time Altitude Azimuth Distance (km) Brightness Sun altitude
Rises 12:14:05 0° 286° (WNW) 4,748 10.0 16.4°
Reaches altitude 10° 12:17:21 10° 281° (W) 3,738 9.6 16.3°
Maximum altitude 12:26:02 45° 213° (SSW) 1,988 9.3 16.1°
Drops below altitude 10° 12:34:32 10° 145° (SE) 3,647 10.2 15.7°
Sets 12:37:41 0° 139° (SE) 4,624 10.5 15.6°
